Location: Muncie
(40.1930°N, 85.3860°W)
Time: 02:55:12
(UTC-05:00)

Hubble Space Telescope - Visible Passes

Search period start: 13 February 2026 00:00
Search period end: 23 February 2026 00:00
Orbit: 478 x 480 km, 28.5° (Epoch: 10 February)

Date Brightness Start Highest point End Pass type
(mag) Time Alt. Az. Time Alt. Az. Time Alt. Az.
19 Feb 3.1 06:43:06 10° SSW 06:44:47 13° S 06:46:28 10° SE visible
20 Feb 3.1 06:12:46 10° SSW 06:14:28 13° S 06:16:09 10° SE visible
21 Feb 3.0 05:43:30 12° S 05:44:08 13° S 05:45:49 10° SE visible
22 Feb 3.3 05:14:51 11° SSE 05:14:51 11° SSE 05:15:28 10° SE visible
22 Feb 3.0 06:51:05 10° SW 06:52:52 13° S 06:54:39 10° SSE visible
